Philadelphia, PA

5:03 PM EDT on July 28, 2016 (GMT -0400)
Philadelphia International

Weather History for KPHL - August, 2013

Change the Weather History Date:

Thursday, August 29, 2013

  Actual Average Record
Temperature  
Mean Temperature 77 °F 75 °F  
Max Temperature 83 °F 84 °F 98 °F (1953)
Min Temperature 71 °F 66 °F 44 °F (1986)
Degree Days  
Heating Degree Days 0 0  
Month to date heating degree days 0 0  
Since 1 June heating degree days 0 11  
Since 1 July heating degree days 0 0  
Cooling Degree Days 12 10  
Month to date cooling degree days 280 342  
Year to date cooling degree days 1190 1099  
Since 1 June cooling degree days 1066 1008  
Growing Degree Days 26 (Base 50)    
Moisture  
Dew Point 68 °F    
Average Humidity 76    
Maximum Humidity 93    
Minimum Humidity 58    
Precipitation  
Precipitation T in 0.10 in 1.88 in (2006)
Month to date precipitation 5.91 3.30  
Year to date precipitation 42.24 27.82  
Snow  
Snow 0.00 in 0.00 in 0.00 in (1870)
Month to date snowfall 0.0 0.0  
Since 1 June snowfall 0.0 0.0  
Since 1 July snowfall 0.0 0.0  
Snow Depth 0.00 in    
Sea Level Pressure  
Sea Level Pressure 29.96 in    
Wind  
Wind Speed 7 mph (ENE)    
Max Wind Speed 14 mph    
Max Gust Speed 21 mph    
Visibility 6 miles    
Events Rain    
T = Trace of Precipitation, MM = Missing Value Source: NWS Daily Summary

Daily Weather History Graph

Daily Weather History Graph

Search for Another Location

Airport or City:

Trip Planner

Search our weather history database for the weather conditions in past years. The results will help you decide how hot, cold, wet, or windy it might be!

Date:

Astronomy

Aug. 29, 2013 Rise Set
Actual Time 6:26 AM EDT 7:36 PM EDT
Civil Twilight 5:58 AM EDT 8:04 PM EDT
Nautical Twilight 5:24 AM EDT 8:37 PM EDT
Astronomical Twilight 4:50 AM EDT 9:12 PM EDT
Moon 12:16 AM EDT (8/29) 3:03 PM EDT (8/29)
Length of Visible Light 14h 06m
Length of Day
13h 10m
Last Quarter, 38% of the Moon is Illuminated
Aug 29
Last Quarter
Sep 5
New
Sep 12
First Quarter
Sep 19
Full
Sep 26
Last Quarter

Hourly Weather History & Observations

Time (EDT) Temp. Heat Index Dew Point Humidity Pressure Visibility Wind Dir Wind Speed Gust Speed Precip Events Conditions
12:08 AM 73.4 °F - 69.8 °F 88% 29.88 in 4.0 mi ENE 5.8 mph - 0.00 in Rain Light Rain
12:35 AM 73.4 °F - 71.6 °F 94% 29.88 in 3.0 mi ENE 6.9 mph - 0.00 in   Overcast
12:42 AM 73.4 °F - 71.6 °F 94% 29.88 in 3.0 mi ENE 5.8 mph - 0.00 in   Overcast
12:54 AM 73.9 °F - 71.1 °F 91% 29.88 in 3.0 mi ENE 4.6 mph - 0.00 in   Overcast
1:54 AM 73.0 °F - 70.0 °F 90% 29.87 in 4.0 mi NNE 6.9 mph - N/A   Overcast
2:46 AM 73.4 °F - 69.8 °F 88% 29.88 in 2.0 mi NE 6.9 mph - N/A   Overcast
2:54 AM 73.0 °F - 70.0 °F 90% 29.88 in 2.0 mi NE 9.2 mph - N/A   Overcast
3:03 AM 73.4 °F - 69.8 °F 88% 29.88 in 1.8 mi NE 8.1 mph - N/A   Overcast
3:40 AM 73.4 °F - 69.8 °F 88% 29.89 in 2.5 mi NE 9.2 mph - N/A   Overcast
3:54 AM 72.0 °F - 69.1 °F 91% 29.89 in 2.5 mi NE 8.1 mph - N/A   Overcast
4:42 AM 71.6 °F - 69.8 °F 94% 29.90 in 2.0 mi NE 6.9 mph - N/A   Scattered Clouds
4:54 AM 72.0 °F - 68.0 °F 87% 29.90 in 2.0 mi NE 6.9 mph - N/A   Scattered Clouds
5:54 AM 72.0 °F - 68.0 °F 87% 29.91 in 2.5 mi NE 6.9 mph - N/A   Scattered Clouds
6:08 AM 71.6 °F - 68.0 °F 88% 29.92 in 1.0 mi NE 5.8 mph - N/A   Scattered Clouds
6:20 AM 71.6 °F - 68.0 °F 88% 29.92 in 1.5 mi ENE 6.9 mph - N/A   Overcast
6:27 AM 71.6 °F - 68.0 °F 88% 29.93 in 2.0 mi ENE 9.2 mph - N/A   Overcast
6:54 AM 71.1 °F - 66.9 °F 87% 29.94 in 2.0 mi ENE 8.1 mph 17.3 mph N/A   Overcast
7:05 AM 71.6 °F - 68.0 °F 88% 29.94 in 3.0 mi NE 9.2 mph - N/A   Overcast
7:30 AM 71.6 °F - 68.0 °F 88% 29.95 in 3.0 mi NE 8.1 mph - N/A   Overcast
7:52 AM 71.6 °F - 68.0 °F 88% 29.96 in 3.0 mi NE 6.9 mph - N/A   Overcast
7:54 AM 73.0 °F - 68.0 °F 84% 29.96 in 3.0 mi NE 6.9 mph - N/A   Haze
8:34 AM 73.4 °F - 68.0 °F 83% 29.96 in 5.0 mi NE 8.1 mph - N/A   Haze
8:54 AM 73.9 °F - 68.0 °F 82% 29.96 in 6.0 mi NE 6.9 mph - N/A   Haze
9:43 AM 75.2 °F - 69.8 °F 83% 29.98 in 6.0 mi NE 9.2 mph - N/A   Haze
9:54 AM 75.9 °F - 70.0 °F 82% 29.99 in 6.0 mi NE 9.2 mph - N/A   Haze
10:22 AM 75.2 °F - 69.8 °F 83% 29.99 in 7.0 mi NE 10.4 mph - N/A   Overcast
10:54 AM 75.9 °F - 68.0 °F 76% 30.00 in 7.0 mi NE 8.1 mph - N/A   Overcast
11:54 AM 77.0 °F - 68.0 °F 74% 30.01 in 9.0 mi East 10.4 mph - 0.00 in   Mostly Cloudy
12:54 PM 75.9 °F - 68.0 °F 76% 30.01 in 9.0 mi East 9.2 mph - N/A   Mostly Cloudy
1:54 PM 80.1 °F 82.7 °F 68.0 °F 67% 30.01 in 9.0 mi ENE 9.2 mph - N/A   Mostly Cloudy
2:54 PM 82.0 °F 84.5 °F 66.9 °F 60% 30.00 in 9.0 mi East 6.9 mph - N/A   Scattered Clouds
3:54 PM 82.0 °F 84.1 °F 66.0 °F 58% 29.99 in 9.0 mi NE 10.4 mph - N/A   Scattered Clouds
4:54 PM 82.0 °F 84.5 °F 66.9 °F 60% 29.99 in 9.0 mi East 9.2 mph - N/A   Scattered Clouds
5:54 PM 81.0 °F 83.0 °F 66.0 °F 60% 29.99 in 9.0 mi East 8.1 mph - N/A   Scattered Clouds
6:20 PM 80.6 °F 82.3 °F 64.4 °F 58% 29.99 in 10.0 mi East 6.9 mph - N/A   Scattered Clouds
6:54 PM 80.1 °F 82.1 °F 66.0 °F 62% 29.99 in 10.0 mi East 4.6 mph - N/A   Partly Cloudy
7:54 PM 75.9 °F - 66.0 °F 71% 30.01 in 10.0 mi ESE 10.4 mph - N/A   Scattered Clouds
8:54 PM 72.0 °F - 64.9 °F 78% 30.04 in 10.0 mi ESE 9.2 mph - N/A   Scattered Clouds
9:54 PM 72.0 °F - 64.0 °F 76% 30.04 in 10.0 mi SE 3.5 mph - N/A   Scattered Clouds
10:54 PM 72.0 °F - 64.0 °F 76% 30.04 in 10.0 mi Calm Calm - N/A   Mostly Cloudy
11:09 PM 71.6 °F - 64.4 °F 78% 30.04 in 10.0 mi Calm Calm - N/A   Overcast
11:54 PM 71.1 °F - 64.0 °F 78% 30.02 in 10.0 mi SSE 4.6 mph - N/A   Overcast